Location: Unspecified
(0.0000°N, 0.0000°E)
Time: 15:41:33
(UTC+02:00)

Ariane H10-3 - Visible Passes

Search period start: 01 September 2014 00:00
Search period end: 11 September 2014 00:00
Orbit: 237 x 22522 km, 7.2° (Epoch: 01 September)

Date Brightness Start Highest point End Pass type
(mag) Time Alt. Az. Time Alt. Az. Time Alt. Az.
01 Sep 5.8 05:33:35 15° E 05:33:35 15° E 05:34:55 10° E visible
02 Sep 7.2 00:23:11 10° W 00:46:00 32° WNW 00:46:00 32° WNW visible
03 Sep 6.3 17:29:01 10° W 22:26:52 76° N 22:32:47 54° ENE visible
04 Sep 5.9 05:30:14 15° E 05:30:14 15° E 05:31:27 10° E visible
05 Sep 7.2 00:18:36 10° W 00:41:59 32° WNW 00:41:59 32° WNW visible
06 Sep 6.4 17:22:31 10° W 22:20:58 75° N 22:27:20 52° ENE visible
07 Sep 6.0 05:24:38 13° E 05:24:38 13° E 05:25:26 10° E visible
08 Sep 7.2 00:10:19 10° W 00:35:42 34° WNW 00:35:42 34° WNW visible
09 Sep 6.4 17:12:47 10° W 22:12:28 75° N 22:19:37 49° ENE visible
10 Sep 6.2 05:16:45 11° E 05:16:45 11° E 05:16:56 10° E visible
10 Sep 10.0 23:57:59 10° W 00:00:00 11° W 00:00:00 11° W visible
